Location: Warszawa
(52.2500°N, 21.0000°E)
Time: 13:43:44
(UTC+02:00)

Vanguard 2 - Pass Details

Date: 12 February 2023
Orbit: 553 x 2927 km, 32.9° (Epoch: 27 March)

Event Time Altitude Azimuth Distance (km) Brightness Sun altitude
Rises 00:08:10 0° 263° (W) 5,675 - -51.4°
Reaches altitude 10° 00:12:39 10° 251° (WSW) 5,004 - -51.3°
Maximum altitude 00:23:21 24° 206° (SSW) 4,485 - -51.0°
Drops below altitude 10° 00:35:37 10° 162° (SSE) 5,749 - -50.5°
Sets 00:41:23 0° 150° (SSE) 6,688 - -50.3°
